Hourly Weather Nottingham

Today, 3 July, Friday

Time Temperature Precipitation Wind Pressure Humidity
00:00 +13°C° 0 mm 2 mps 755 mmHg 90%
01:00 +12°C° 0 mm 2 mps 755 mmHg 90%
02:00 +11°C° 0 mm 3 mps 755 mmHg 90%
03:00 +11°C° 0 mm 3 mps 754 mmHg 90%
04:00 +11°C° 0 mm 4 mps 754 mmHg 89%
05:00 +11°C° 0 mm 4 mps 754 mmHg 89%
06:00 +10°C° 0 mm 5 mps 754 mmHg 88%
07:00 +11°C° 0 mm 6 mps 754 mmHg 87%
08:00 +11°C° 0 mm 6 mps 754 mmHg 86%
09:00 +12°C° 0 mm 7 mps 754 mmHg 85%
10:00 +14°C° 0 mm 7 mps 753 mmHg 82%
11:00 +15°C° 0 mm 8 mps 753 mmHg 80%
12:00 +16°C° 0 mm 9 mps 753 mmHg 77%
13:00 +16°C° 0 mm 9 mps 753 mmHg 78%
14:00 +16°C° 0 mm 9 mps 752 mmHg 79%
15:00 +15°C° 0 mm 9 mps 752 mmHg 79%
16:00 +15°C° 0.1 mm 9 mps 752 mmHg 81%
17:00 +15°C° 0.1 mm 8 mps 752 mmHg 83%
18:00 +15°C° 0.1 mm 8 mps 752 mmHg 85%
19:00 +15°C° 0.1 mm 8 mps 752 mmHg 86%
20:00 +15°C° 0.1 mm 7 mps 752 mmHg 86%
21:00 +15°C° 0.1 mm 7 mps 752 mmHg 87%
22:00 +15°C° 0.3 mm 6 mps 752 mmHg 89%
23:00 +15°C° 0.3 mm 6 mps 751 mmHg 91%

Tomorrow, 4 July, Saturday

Time Temperature Precipitation Wind Pressure Humidity
00:00 +15°C° 0.3 mm 6 mps 751 mmHg 93%
01:00 +15°C° 0.1 mm 6 mps 751 mmHg 93%
02:00 +15°C° 0.1 mm 6 mps 751 mmHg 93%
03:00 +15°C° 0.1 mm 5 mps 750 mmHg 93%
04:00 +16°C° 0.1 mm 6 mps 750 mmHg 93%
05:00 +16°C° 0.1 mm 6 mps 750 mmHg 93%
06:00 +16°C° 0.1 mm 6 mps 749 mmHg 93%
07:00 +17°C° 0 mm 6 mps 750 mmHg 91%
08:00 +18°C° 0 mm 7 mps 750 mmHg 88%
09:00 +20°C° 0 mm 7 mps 750 mmHg 86%
10:00 +20°C° 0.1 mm 8 mps 750 mmHg 82%
11:00 +21°C° 0.1 mm 8 mps 749 mmHg 78%
12:00 +22°C° 0.1 mm 8 mps 749 mmHg 75%
13:00 +22°C° 0.1 mm 8 mps 749 mmHg 76%
14:00 +21°C° 0.1 mm 8 mps 749 mmHg 76%
15:00 +21°C° 0.1 mm 8 mps 749 mmHg 77%
16:00 +20°C° 0 mm 7 mps 749 mmHg 80%
17:00 +19°C° 0 mm 6 mps 749 mmHg 82%
18:00 +19°C° 0 mm 5 mps 749 mmHg 85%
19:00 +19°C° 0 mm 5 mps 750 mmHg 85%
20:00 +17°C° 0 mm 5 mps 750 mmHg 85%
21:00 +17°C° 0 mm 6 mps 750 mmHg 85%
22:00 +17°C° 0 mm 6 mps 749 mmHg 84%
23:00 +16°C° 0 mm 7 mps 749 mmHg 83%

Day after tomorrow, 5 July, Sunday

Time Temperature Precipitation Wind Pressure Humidity
00:00 +16°C° 0 mm 8 mps 749 mmHg 83%
01:00 +16°C° 0 mm 8 mps 748 mmHg 81%
02:00 +17°C° 0 mm 9 mps 748 mmHg 79%
03:00 +18°C° 0 mm 10 mps 747 mmHg 78%
04:00 +17°C° 0.2 mm 10 mps 747 mmHg 80%
05:00 +17°C° 0.2 mm 9 mps 747 mmHg 82%
06:00 +17°C° 0.2 mm 9 mps 747 mmHg 85%
07:00 +17°C° 0.1 mm 9 mps 747 mmHg 80%
08:00 +17°C° 0.1 mm 9 mps 748 mmHg 76%
09:00 +17°C° 0.1 mm 9 mps 748 mmHg 72%
10:00 +17°C° 0 mm 9 mps 748 mmHg 69%
11:00 +17°C° 0 mm 9 mps 749 mmHg 65%
12:00 +17°C° 0 mm 9 mps 749 mmHg 62%
13:00 +17°C° 0 mm 8 mps 749 mmHg 61%
14:00 +17°C° 0 mm 8 mps 749 mmHg 61%
15:00 +16°C° 0 mm 8 mps 749 mmHg 61%
16:00 +16°C° 0 mm 8 mps 749 mmHg 64%
17:00 +15°C° 0 mm 8 mps 749 mmHg 66%
18:00 +15°C° 0 mm 8 mps 749 mmHg 69%
19:00 +13°C° 0 mm 8 mps 749 mmHg 70%
20:00 +12°C° 0 mm 8 mps 749 mmHg 71%
21:00 +11°C° 0 mm 7 mps 750 mmHg 71%
22:00 +11°C° 0 mm 7 mps 750 mmHg 72%
23:00 +11°C° 0 mm 8 mps 750 mmHg 72%

6 July, Monday

Time Temperature Precipitation Wind Pressure Humidity
00:00 +11°C° 0 mm 8 mps 750 mmHg 73%
01:00 +10°C° 0 mm 7 mps 750 mmHg 75%
02:00 +10°C° 0 mm 7 mps 750 mmHg 76%
03:00 +10°C° 0 mm 7 mps 751 mmHg 78%
04:00 +10°C° 0 mm 7 mps 752 mmHg 77%
05:00 +11°C° 0 mm 7 mps 752 mmHg 76%
06:00 +11°C° 0 mm 7 mps 753 mmHg 74%
07:00 +12°C° 0 mm 8 mps 754 mmHg 71%
08:00 +13°C° 0 mm 8 mps 755 mmHg 69%
09:00 +13°C° 0 mm 9 mps 755 mmHg 66%
10:00 +15°C° 0.1 mm 8 mps 756 mmHg 66%
11:00 +16°C° 0.1 mm 8 mps 757 mmHg 66%
12:00 +17°C° 0.1 mm 7 mps 757 mmHg 65%
13:00 +17°C° 0.2 mm 7 mps 758 mmHg 64%
14:00 +17°C° 0.2 mm 7 mps 758 mmHg 64%
15:00 +17°C° 0.2 mm 6 mps 759 mmHg 63%
16:00 +17°C° 0 mm 6 mps 759 mmHg 64%
17:00 +16°C° 0 mm 6 mps 759 mmHg 65%
18:00 +16°C° 0 mm 6 mps 760 mmHg 66%
19:00 +14°C° 0 mm 5 mps 760 mmHg 69%
20:00 +12°C° 0 mm 4 mps 760 mmHg 72%
21:00 +11°C° 0 mm 4 mps 761 mmHg 76%
22:00 +10°C° 0 mm 3 mps 761 mmHg 78%
23:00 +9°C° 0 mm 3 mps 761 mmHg 80%

7 July, Tuesday

Time Temperature Precipitation Wind Pressure Humidity
00:00 +9°C° 0 mm 3 mps 761 mmHg 83%
01:00 +9°C° 0 mm 3 mps 761 mmHg 85%
02:00 +8°C° 0 mm 3 mps 761 mmHg 87%
03:00 +8°C° 0 mm 3 mps 761 mmHg 89%
04:00 +9°C° 0 mm 3 mps 761 mmHg 87%
05:00 +10°C° 0 mm 3 mps 761 mmHg 86%
06:00 +11°C° 0 mm 3 mps 761 mmHg 84%
07:00 +12°C° 0 mm 3 mps 761 mmHg 79%
08:00 +14°C° 0 mm 3 mps 761 mmHg 74%
09:00 +15°C° 0 mm 4 mps 761 mmHg 69%
10:00 +17°C° 0.1 mm 4 mps 761 mmHg 66%
11:00 +18°C° 0.1 mm 4 mps 760 mmHg 64%
12:00 +17°C° 0.1 mm 5 mps 760 mmHg 61%
13:00 +17°C° 0.1 mm 5 mps 760 mmHg 61%
14:00 +19°C° 0.1 mm 5 mps 760 mmHg 60%
15:00 +19°C° 0.1 mm 5 mps 760 mmHg 59%
16:00 +17°C° 0 mm 5 mps 760 mmHg 61%
17:00 +18°C° 0 mm 4 mps 760 mmHg 64%
18:00 +17°C° 0 mm 4 mps 760 mmHg 66%
19:00 +16°C° 0 mm 3 mps 761 mmHg 70%
20:00 +13°C° 0 mm 3 mps 761 mmHg 73%
21:00 +12°C° 0 mm 2 mps 761 mmHg 77%
22:00 +12°C° 0 mm 2 mps 761 mmHg 75%
23:00 +13°C° 0 mm 2 mps 761 mmHg 73%

8 July, Wednesday

Time Temperature Precipitation Wind Pressure Humidity
00:00 +13°C° 0 mm 1 mps 761 mmHg 71%
01:00 +13°C° 0 mm 2 mps 761 mmHg 72%
02:00 +13°C° 0 mm 2 mps 761 mmHg 73%
03:00 +12°C° 0 mm 3 mps 761 mmHg 75%
04:00 +12°C° 0 mm 3 mps 761 mmHg 76%
05:00 +13°C° 0 mm 4 mps 761 mmHg 77%
06:00 +13°C° 0 mm 4 mps 761 mmHg 78%
07:00 +15°C° 0 mm 4 mps 760 mmHg 77%
08:00 +16°C° 0 mm 5 mps 760 mmHg 76%
09:00 +19°C° 0 mm 5 mps 760 mmHg 75%
10:00 +20°C° 0 mm 5 mps 760 mmHg 73%
11:00 +21°C° 0 mm 6 mps 760 mmHg 71%
12:00 +22°C° 0 mm 6 mps 760 mmHg 69%
13:00 +22°C° 0 mm 6 mps 760 mmHg 69%
14:00 +22°C° 0 mm 6 mps 760 mmHg 69%
15:00 +23°C° 0 mm 6 mps 759 mmHg 70%
16:00 +22°C° 0 mm 6 mps 759 mmHg 72%
17:00 +22°C° 0 mm 5 mps 759 mmHg 74%
18:00 +21°C° 0 mm 5 mps 759 mmHg 76%
19:00 +20°C° 0 mm 5 mps 759 mmHg 80%
20:00 +19°C° 0 mm 4 mps 759 mmHg 83%
21:00 +18°C° 0 mm 4 mps 759 mmHg 87%
22:00 +16°C° 0 mm 5 mps 758 mmHg 87%
23:00 +16°C° 0 mm 5 mps 758 mmHg 88%
Show more